Tracking 30166 objects as of 22-Jan-2025
HD Live streaming from Space Station
objects crossing your sky now

COSMOS 1124 DEB

Track COSMOS 1124 DEB now!


NORAD ID: 12814
Int'l Code: 1979-077E
Perigee: 389.0 km
Apogee: 38,941.8 km
Inclination: 61.6 °
Period: 696.8 minutes
Semi major axis: 26036 km
RCS: 0.3664 m2 (medium)
Launch date: August 28, 1979
Source: Commonwealth of Independent States (former USSR) (CIS)
Launch site: PLESETSK MISSILE AND SPACE COMPLEX (PKMTR)

Note: This is SATELLITE DEBRIS
Your satellite tracking list
Your tracking list is empty




NASA's NSSDC Master Catalog

Two Line Element Set (TLE):
1 12814U 79077E   25020.06156711  .00010768  00000-0  24185-1 0  9995
2 12814  61.6024 311.3171 7403637  51.9622 354.0217  2.06648220 52154
Source of the keplerian elements: AFSPC